Location: Goettingen
(51.5300°N, 9.9433°E)
Time: 02:41:22
(UTC+01:00)

ISS - Pass Details

Date: 21 May 2017
Orbit: 402 x 406 km, 51.6° (Epoch: 16 December)

Event Time Altitude Azimuth Distance (km) Brightness Sun altitude
Exits shadow 01:28:02 65° 163° (SSE) 464 -3.9 -18.2°
Drops below altitude 10° 01:31:21 10° 81° (E) 1,491 -0.8 -18.2°
Sets 01:33:27 0° 78° (ENE) 2,351 0.3 -18.2°
